TimeCET,TemperatureF,Dew PointF,Humidity,Sea Level PressureIn,VisibilityMPH,Wind Direction,Wind SpeedMPH,Gust SpeedMPH,PrecipitationIn,Events,Conditions,WindDirDegrees,DateUTC
12:03 AM,28.4,23.0,80,29.80,6.2,ENE,21.9,-,N/A,,Mostly Cloudy,70,2013-03-10 23:03:00
12:13 AM,28.4,23.0,80,29.80,6.2,ENE,20.7,-,N/A,,Mostly Cloudy,70,2013-03-10 23:13:00
12:17 AM,28.4,23.0,80,29.80,6.2,ENE,19.6,-,N/A,,Mostly Cloudy,70,2013-03-10 23:17:00
12:25 AM,28.4,23.0,80,29.80,6.2,ENE,18.4,-,N/A,,Mostly Cloudy,70,2013-03-10 23:25:00
12:39 AM,28.4,23.0,80,29.83,6.2,ENE,17.3,-,N/A,Snow,Light Snow,70,2013-03-10 23:39:00
12:43 AM,28.4,24.8,86,29.83,-9999.0,ENE,18.4,-,N/A,Snow,Light Snow,60,2013-03-10 23:43:00
12:47 AM,28.4,24.8,86,29.83,-9999.0,ENE,18.4,-,N/A,Snow,Light Snow,60,2013-03-10 23:47:00
12:55 AM,28.4,24.8,86,29.83,3.1,ENE,19.6,-,N/A,Snow,Light Snow,60,2013-03-10 23:55:00
1:00 AM,28,25,85,29.83,4,ENE,17.9,,,Snow,Light Snow Showers,60,2013-03-11 00:00:00
1:07 AM,28.4,24.8,86,29.83,2.2,ENE,18.4,-,N/A,Snow,Light Snow,60,2013-03-11 00:07:00
1:11 AM,28.4,24.8,86,29.83,1.7,ENE,17.3,-,N/A,Snow,Light Snow,60,2013-03-11 00:11:00
1:16 AM,28.4,24.8,86,29.83,-9999.0,ENE,18.4,-,N/A,Snow,Light Snow,60,2013-03-11 00:16:00
1:20 AM,28.4,24.8,86,29.83,-9999.0,ENE,20.7,-,N/A,Snow,Light Snow,60,2013-03-11 00:20:00
1:25 AM,28.4,24.8,86,29.83,-9999.0,ENE,20.7,-,N/A,Snow,Light Snow,60,2013-03-11 00:25:00
1:36 AM,28.4,24.8,86,29.83,1.9,ENE,18.4,-,N/A,Snow,Light Snow,60,2013-03-11 00:36:00
1:43 AM,28.4,24.8,86,29.83,-9999.0,ENE,19.6,-,N/A,Snow,Light Snow,60,2013-03-11 00:43:00
1:51 AM,26.6,24.8,93,29.83,2.2,ENE,20.7,-,N/A,Snow,Light Snow,60,2013-03-11 00:51:00
1:55 AM,26.6,24.8,93,29.83,1.8,ENE,20.7,-,N/A,Snow,Light Snow,60,2013-03-11 00:55:00
1:59 AM,26.6,24.8,93,29.83,-9999.0,ENE,19.6,-,N/A,Snow,Light Snow,60,2013-03-11 00:59:00
2:09 AM,26.6,24.8,93,29.83,3.1,ENE,21.9,-,N/A,Snow,Light Snow,60,2013-03-11 01:09:00
2:10 AM,26.6,24.8,93,29.83,2.8,ENE,20.7,-,N/A,Snow,Light Snow,60,2013-03-11 01:10:00
2:20 AM,26.6,24.8,93,29.83,-9999.0,ENE,20.7,-,N/A,Snow,Light Snow,60,2013-03-11 01:20:00
2:25 AM,26.6,24.8,93,29.83,-9999.0,ENE,19.6,-,N/A,Snow,Light Snow,60,2013-03-11 01:25:00
2:38 AM,26.6,24.8,93,29.83,3.1,ENE,20.7,-,N/A,Snow,Light Snow,60,2013-03-11 01:38:00
2:46 AM,26.6,24.8,93,29.83,-9999.0,ENE,18.4,-,N/A,Snow,Light Snow,60,2013-03-11 01:46:00
2:55 AM,26.6,24.8,93,29.83,-9999.0,ENE,18.4,-,N/A,Snow,Light Snow,60,2013-03-11 01:55:00
3:05 AM,26.6,24.8,93,29.83,4.3,ENE,18.4,-,N/A,Snow,Light Snow,60,2013-03-11 02:05:00
3:19 AM,26.6,24.8,93,29.83,-9999.0,ENE,18.4,-,N/A,Snow,Light Snow,60,2013-03-11 02:19:00
3:25 AM,26.6,24.8,93,29.83,3.1,ENE,18.4,-,N/A,Snow,Light Snow,60,2013-03-11 02:25:00
3:55 AM,26.6,24.8,93,29.83,3.1,ENE,18.4,-,N/A,Snow,Light Snow,60,2013-03-11 02:55:00
4:07 AM,26.6,24.8,93,29.83,-9999.0,ENE,21.9,-,N/A,Snow,Light Snow,60,2013-03-11 03:07:00
4:13 AM,26.6,24.8,93,29.83,3.1,ENE,20.7,-,N/A,Snow,Light Snow,60,2013-03-11 03:13:00
4:20 AM,26.6,24.8,93,29.83,-9999.0,ENE,20.7,-,N/A,Snow,Light Snow,60,2013-03-11 03:20:00
4:25 AM,26.6,24.8,93,29.83,-9999.0,ENE,20.7,-,N/A,Snow,Light Snow,60,2013-03-11 03:25:00
4:37 AM,26.6,24.8,93,29.83,-9999.0,ENE,20.7,-,N/A,Snow,Light Snow,60,2013-03-11 03:37:00
4:41 AM,26.6,24.8,93,29.83,-9999.0,ENE,20.7,-,N/A,Snow,Light Snow,60,2013-03-11 03:41:00
4:48 AM,26.6,24.8,93,29.83,4.3,ENE,23.0,-,N/A,Snow,Light Snow,60,2013-03-11 03:48:00
4:55 AM,26.6,24.8,93,29.83,4.3,ENE,21.9,-,N/A,Snow,Light Snow,60,2013-03-11 03:55:00
5:04 AM,26.6,24.8,93,29.83,4.3,ENE,20.7,-,N/A,Snow,Light Snow,60,2013-03-11 04:04:00
5:12 AM,26.6,24.8,93,29.83,6.2,ENE,20.7,-,N/A,Snow,Light Snow Grains,60,2013-03-11 04:12:00
5:18 AM,26.6,24.8,93,29.83,6.2,ENE,20.7,-,N/A,,Mostly Cloudy,60,2013-03-11 04:18:00
5:25 AM,26.6,24.8,93,29.83,6.2,ENE,19.6,-,N/A,,Overcast,60,2013-03-11 04:25:00
5:44 AM,26.6,23.0,86,29.83,6.2,ENE,19.6,-,N/A,,Overcast,60,2013-03-11 04:44:00
5:55 AM,26.6,23.0,86,29.83,6.2,ENE,19.6,-,N/A,,Overcast,60,2013-03-11 04:55:00
6:00 AM,26.6,23.0,86,29.83,6.2,ENE,18.4,-,N/A,,Overcast,70,2013-03-11 05:00:00
6:05 AM,26.6,23.0,86,29.83,6.2,ENE,17.3,-,N/A,,Overcast,60,2013-03-11 05:05:00
6:25 AM,26.6,21.2,80,29.83,6.2,ENE,20.7,-,N/A,,Overcast,60,2013-03-11 05:25:00
6:34 AM,26.6,21.2,80,29.83,6.2,ENE,17.3,-,N/A,Snow,Light Snow,60,2013-03-11 05:34:00
6:40 AM,26.6,21.2,80,29.83,6.2,ENE,16.1,-,N/A,,Mostly Cloudy,60,2013-03-11 05:40:00
6:49 AM,26.6,21.2,80,29.83,6.2,ENE,18.4,-,N/A,,Mostly Cloudy,70,2013-03-11 05:49:00
6:55 AM,24.8,21.2,86,29.83,6.2,ENE,18.4,-,N/A,,Overcast,70,2013-03-11 05:55:00
7:00 AM,26,21,72,29.85,17,ENE,17.9,,,Snow,Snow,70,2013-03-11 06:00:00
7:25 AM,24.8,21.2,86,29.83,6.2,ENE,16.1,-,N/A,,Mostly Cloudy,70,2013-03-11 06:25:00
7:33 AM,24.8,21.2,86,29.83,6.2,ENE,16.1,-,N/A,,Mostly Cloudy,70,2013-03-11 06:33:00
7:45 AM,24.8,21.2,86,29.83,3.1,ENE,18.4,-,N/A,,Mostly Cloudy,70,2013-03-11 06:45:00
7:49 AM,24.8,21.2,86,29.83,-9999.0,ENE,17.3,-,N/A,Snow,Light Snow,70,2013-03-11 06:49:00
7:54 AM,24.8,23.0,93,29.83,-9999.0,ENE,15.0,-,N/A,Snow,Light Snow,70,2013-03-11 06:54:00
7:55 AM,24.8,23.0,93,29.86,1.9,ENE,15.0,-,N/A,Snow,Light Snow,70,2013-03-11 06:55:00
8:01 AM,24.8,23.0,93,29.86,1.6,ENE,17.3,-,N/A,Snow,Light Snow,70,2013-03-11 07:01:00
8:04 AM,24.8,23.0,93,29.86,0.7,ENE,17.3,-,N/A,Snow,Light Snow,70,2013-03-11 07:04:00
8:05 AM,24.8,23.0,93,29.86,1.0,ENE,17.3,-,N/A,Snow,Light Snow,60,2013-03-11 07:05:00
8:11 AM,24.8,23.0,93,29.86,-9999.0,ENE,17.3,-,N/A,Snow,Light Snow,60,2013-03-11 07:11:00
8:15 AM,26.6,23.0,86,29.86,5.6,ENE,16.1,-,N/A,Snow,Light Snow,60,2013-03-11 07:15:00
8:25 AM,26.6,23.0,86,29.86,3.1,ENE,15.0,-,N/A,Snow,Light Snow,70,2013-03-11 07:25:00
8:32 AM,24.8,23.0,93,29.86,-9999.0,ENE,15.0,-,N/A,Snow,Light Snow,70,2013-03-11 07:32:00
8:36 AM,26.6,23.0,86,29.86,-9999.0,ENE,17.3,-,N/A,Snow,Light Snow,70,2013-03-11 07:36:00
8:43 AM,26.6,23.0,86,29.86,1.7,ENE,17.3,-,N/A,Snow,Light Snow,70,2013-03-11 07:43:00
8:47 AM,26.6,23.0,86,29.86,2.8,ENE,18.4,-,N/A,Snow,Light Snow,70,2013-03-11 07:47:00
8:50 AM,26.6,24.8,93,29.86,-9999.0,ENE,19.6,-,N/A,Snow,Light Snow,70,2013-03-11 07:50:00
8:55 AM,26.6,24.8,93,29.86,-9999.0,ENE,18.4,-,N/A,Snow,Light Snow,60,2013-03-11 07:55:00
9:07 AM,26.6,24.8,93,29.86,4.3,ENE,16.1,-,N/A,Snow,Light Snow Grains,70,2013-03-11 08:07:00
9:25 AM,26.6,24.8,93,29.86,5.6,ENE,16.1,-,N/A,Snow,Light Snow,70,2013-03-11 08:25:00
9:26 AM,26.6,24.8,93,29.86,6.2,ENE,16.1,-,N/A,,Mostly Cloudy,70,2013-03-11 08:26:00
9:55 AM,26.6,24.8,93,29.86,5.6,ENE,17.3,-,N/A,Snow,Light Snow,70,2013-03-11 08:55:00
10:25 AM,28.4,21.2,74,29.86,6.2,ENE,18.4,-,N/A,,Mostly Cloudy,70,2013-03-11 09:25:00
10:55 AM,28.4,21.2,74,29.86,6.2,ENE,17.3,-,N/A,,Mostly Cloudy,70,2013-03-11 09:55:00
11:25 AM,28.4,21.2,74,29.86,6.2,ENE,19.6,-,N/A,,Scattered Clouds,70,2013-03-11 10:25:00
11:55 AM,28.4,19.4,69,29.86,6.2,ENE,18.4,-,N/A,,Mostly Cloudy,70,2013-03-11 10:55:00
12:25 PM,30.2,21.2,69,29.86,6.2,ENE,17.3,-,N/A,,Mostly Cloudy,70,2013-03-11 11:25:00
12:55 PM,28.4,21.2,74,29.86,6.2,ENE,20.7,-,N/A,,Mostly Cloudy,60,2013-03-11 11:55:00
1:00 PM,29,20,58,29.86,14,ENE,20.1,,,Rain,Freezing Rain,70,2013-03-11 12:00:00
1:25 PM,28.4,19.4,69,29.86,6.2,ENE,18.4,-,N/A,,Mostly Cloudy,70,2013-03-11 12:25:00
1:55 PM,28.4,21.2,74,29.86,6.2,ENE,19.6,-,N/A,Snow,Light Snow,60,2013-03-11 12:55:00
2:25 PM,30.2,19.4,64,29.83,6.2,ENE,20.7,-,N/A,,Mostly Cloudy,60,2013-03-11 13:25:00
2:55 PM,30.2,21.2,69,29.83,6.2,ENE,19.6,-,N/A,,Mostly Cloudy,60,2013-03-11 13:55:00
3:25 PM,28.4,21.2,74,29.83,6.2,ENE,21.9,-,N/A,,Mostly Cloudy,60,2013-03-11 14:25:00
3:55 PM,28.4,21.2,74,29.83,6.2,ENE,19.6,-,N/A,,Scattered Clouds,60,2013-03-11 14:55:00
4:25 PM,28.4,23.0,80,29.83,-9999.0,ENE,21.9,-,N/A,Snow,Light Snow,60,2013-03-11 15:25:00
4:55 PM,28.4,21.2,74,29.83,6.2,ENE,20.7,-,N/A,,Mostly Cloudy,60,2013-03-11 15:55:00
5:25 PM,28.4,19.4,69,29.83,6.2,ENE,17.3,-,N/A,,Mostly Cloudy,60,2013-03-11 16:25:00
5:55 PM,28.4,19.4,69,29.83,6.2,ENE,17.3,-,N/A,,Mostly Cloudy,60,2013-03-11 16:55:00
6:25 PM,26.6,21.2,80,29.83,6.2,NE,16.1,-,N/A,,Mostly Cloudy,50,2013-03-11 17:25:00
6:55 PM,26.6,21.2,80,29.86,6.2,NE,16.1,-,N/A,,Scattered Clouds,50,2013-03-11 17:55:00
7:00 PM,26,21,72,29.86,19,NE,13.4,,,,Partly Cloudy,50,2013-03-11 18:00:00
7:25 PM,26.6,19.4,74,29.86,6.2,NE,10.4,-,N/A,,Mostly Cloudy,40,2013-03-11 18:25:00
7:55 PM,26.6,19.4,74,29.86,6.2,NE,11.5,-,N/A,,Overcast,50,2013-03-11 18:55:00
8:25 PM,26.6,19.4,74,29.86,6.2,ENE,11.5,-,N/A,,Overcast,60,2013-03-11 19:25:00
8:55 PM,26.6,19.4,74,29.86,6.2,ENE,11.5,-,N/A,,Mostly Cloudy,60,2013-03-11 19:55:00
9:25 PM,26.6,19.4,74,29.86,6.2,ENE,10.4,-,N/A,,Partly Cloudy,60,2013-03-11 20:25:00
9:55 PM,26.6,19.4,74,29.86,6.2,ENE,12.7,-,N/A,,Mostly Cloudy,70,2013-03-11 20:55:00
10:25 PM,26.6,19.4,74,29.86,6.2,ENE,11.5,-,N/A,,Scattered Clouds,70,2013-03-11 21:25:00
10:55 PM,26.6,19.4,74,29.86,6.2,ENE,10.4,-,N/A,,Mostly Cloudy,70,2013-03-11 21:55:00